Date Time,Air Temp,Sky Temp,Clarity,Light Level,Rain Sensor,Readings
2009-11-03 00:00:04,16.9,6.1,10.8,0.2,4.4,111
2009-11-03 00:05:04,16.9,5.9,11.0,0.5,3.0,112
2009-11-03 00:10:04,17.0,5.5,11.5,0.5,2.7,112
2009-11-03 00:15:04,17.1,5.4,11.7,0.5,2.7,111
2009-11-03 00:20:04,17.2,4.8,12.3,0.6,2.7,112
2009-11-03 00:25:04,17.3,5.7,11.6,0.5,2.8,112
2009-11-03 00:30:04,17.7,6.6,11.1,0.4,2.8,111
2009-11-03 00:35:04,17.5,6.2,11.2,0.4,2.9,112
2009-11-03 00:40:04,17.5,5.8,11.7,0.4,2.7,111
2009-11-03 00:45:04,17.5,6.2,11.3,0.4,2.7,111
2009-11-03 00:50:04,17.6,5.2,12.4,0.7,2.7,112
2009-11-03 00:55:04,17.6,3.7,13.9,0.8,2.7,111
2009-11-03 01:00:04,17.6,4.0,13.6,0.6,3.0,112
2009-11-03 01:05:04,17.6,5.3,12.3,0.4,3.2,112
2009-11-03 01:10:04,17.6,5.9,11.7,0.3,3.0,111
2009-11-03 01:15:04,17.6,6.3,11.4,0.3,2.9,112
2009-11-03 01:20:04,17.7,6.4,11.3,0.2,3.3,111
2009-11-03 01:25:04,17.7,6.7,11.1,0.3,2.9,112
2009-11-03 01:30:04,17.7,6.1,11.7,0.4,3.5,112
2009-11-03 01:35:04,17.7,5.4,12.3,0.3,5.1,112
2009-11-03 01:40:04,17.6,5.7,12.0,0.4,5.2,111
2009-11-03 01:45:04,17.6,5.7,11.9,0.5,6.2,112
2009-11-03 01:50:04,17.5,5.2,12.4,0.4,4.9,111
2009-11-03 01:55:04,17.5,6.5,11.0,0.4,6.6,112
2009-11-03 02:00:04,17.5,7.4,10.1,0.3,12.8,111
2009-11-03 02:05:04,17.6,5.4,12.2,0.3,5.6,112
2009-11-03 02:10:04,17.6,6.6,11.0,0.2,8.3,112
2009-11-03 02:15:04,17.7,6.5,11.1,0.2,4.9,111
2009-11-03 02:20:04,17.6,6.8,10.8,0.2,3.6,111
2009-11-03 02:25:04,17.6,7.0,10.5,0.3,3.3,112
2009-11-03 02:30:04,17.6,7.2,10.4,0.3,3.2,111
2009-11-03 02:35:04,17.6,6.9,10.7,0.3,3.2,112
2009-11-03 02:40:04,17.7,6.7,10.9,0.3,3.2,111
2009-11-03 02:45:04,17.7,6.6,11.2,0.3,3.1,111
2009-11-03 02:50:04,17.7,3.9,13.8,0.5,3.2,112
2009-11-03 02:55:04,17.7,3.5,14.2,0.6,3.2,111
2009-11-03 03:00:04,17.6,2.8,14.9,0.5,3.2,111
2009-11-03 03:05:04,17.6,5.2,12.5,0.3,3.2,112
2009-11-03 03:10:04,17.7,5.1,12.5,0.3,3.2,112
2009-11-03 03:15:04,17.7,5.4,12.4,0.3,3.2,111
2009-11-03 03:20:04,17.8,5.4,12.3,0.3,3.2,112
2009-11-03 03:25:04,17.8,4.0,13.8,0.4,3.2,112
2009-11-03 03:30:04,17.8,2.9,14.8,0.5,3.2,111
2009-11-03 03:35:04,17.8,3.7,14.1,0.4,3.2,111
2009-11-03 03:40:04,17.8,3.6,14.2,0.3,3.2,112
2009-11-03 03:45:04,17.8,2.7,15.1,0.4,3.2,111
2009-11-03 03:50:04,17.8,2.2,15.6,0.5,3.2,112
2009-11-03 03:55:04,18.1,-1.5,19.6,0.6,3.2,111
2009-11-03 04:00:04,20.7,-0.4,21.1,0.4,3.0,112
2009-11-03 04:05:04,19.5,2.9,16.6,0.4,3.0,111
2009-11-03 04:10:04,18.2,3.2,15.0,0.3,4.0,111
2009-11-03 04:15:04,17.9,4.0,14.0,0.3,5.0,111
2009-11-03 04:20:04,17.8,4.5,13.4,0.2,8.6,112
2009-11-03 04:25:04,17.8,4.5,13.3,0.3,5.9,111
2009-11-03 04:30:04,17.6,3.6,14.0,0.2,4.2,112
2009-11-03 04:35:04,17.6,3.9,13.6,0.2,7.8,111
2009-11-03 04:40:04,17.6,7.6,10.0,0.2,16.1,112
2009-11-03 04:45:04,17.7,9.9,7.9,0.3,18.9,111
2009-11-03 04:50:04,17.8,9.1,8.7,0.3,14.6,112
2009-11-03 04:55:04,17.8,9.6,8.2,0.5,8.1,111
2009-11-03 05:00:04,17.7,9.5,8.1,0.3,3.3,112
2009-11-03 05:05:04,17.6,4.8,12.8,0.4,3.0,111
2009-11-03 05:10:04,17.6,4.0,13.6,0.3,3.0,112
2009-11-03 05:15:04,17.6,4.5,13.1,0.3,3.1,112
2009-11-03 05:20:04,17.7,4.6,13.2,0.4,3.2,111
2009-11-03 05:25:04,17.8,3.9,13.9,0.3,3.2,112
2009-11-03 05:30:04,17.8,5.3,12.5,0.2,3.3,111
2009-11-03 05:35:04,17.8,5.8,12.0,0.1,4.4,112
2009-11-03 05:40:04,17.9,6.0,11.9,0.0,5.0,112
2009-11-03 05:45:04,17.9,6.3,11.5,0.0,3.3,111
2009-11-03 05:50:04,17.9,6.8,11.1,0.0,3.1,111
2009-11-03 05:55:04,17.9,6.1,11.8,0.1,3.0,112
2009-11-03 06:00:04,17.9,5.5,12.4,0.2,2.9,111
2009-11-03 06:05:04,18.0,5.9,12.1,0.2,2.9,112
2009-11-03 06:10:04,18.0,5.1,12.9,0.3,4.6,111
2009-11-03 06:15:04,18.0,5.6,12.4,0.5,3.2,112
2009-11-03 06:20:04,18.0,5.3,12.7,0.9,4.2,112
2009-11-03 06:25:04,18.1,6.0,12.1,1.6,3.4,111
2009-11-03 06:30:04,18.1,5.6,12.5,2.8,9.3,112
2009-11-03 06:35:04,18.2,5.9,12.2,7.3,3.2,111
2009-11-03 06:40:04,18.2,6.4,11.8,12.1,3.1,112
2009-11-03 06:45:04,18.3,6.1,12.2,19.3,3.3,111
2009-11-03 06:50:04,18.3,5.6,12.8,25.3,3.0,112
2009-11-03 06:55:04,18.3,3.7,14.6,28.2,3.1,111
2009-11-03 07:00:04,18.3,4.7,13.7,29.4,2.9,112
2009-11-03 07:05:04,18.4,5.2,13.2,30.1,2.9,111
2009-11-03 07:10:04,18.4,5.9,12.5,30.4,2.9,112
2009-11-03 07:15:04,18.4,5.8,12.6,31.0,2.8,111
2009-11-03 07:20:04,18.5,5.9,12.6,31.2,2.8,112
2009-11-03 07:25:04,18.5,5.8,12.7,31.3,3.4,111
2009-11-03 07:30:04,18.5,5.8,12.6,31.7,3.1,112
2009-11-03 07:35:04,18.4,6.1,12.4,31.6,2.8,111
2009-11-03 07:40:04,18.4,6.0,12.4,31.6,3.7,112
2009-11-03 07:45:04,18.5,5.7,12.8,32.0,4.3,111
2009-11-03 07:50:04,18.4,5.3,13.1,32.2,3.8,112
2009-11-03 07:55:04,18.4,5.9,12.6,32.2,2.7,111
2009-11-03 08:00:04,18.5,4.6,13.9,32.3,2.7,111
2009-11-03 08:05:04,18.6,5.3,13.3,32.3,2.7,112
2009-11-03 08:10:04,18.6,5.2,13.4,32.2,2.7,111
2009-11-03 08:15:04,18.7,2.8,15.9,32.4,2.7,112
2009-11-03 08:20:04,18.8,0.3,18.6,32.4,2.7,111
2009-11-03 08:25:04,19.0,-0.3,19.3,32.4,2.8,112
2009-11-03 08:30:04,21.8,-5.8,27.6,32.4,2.7,111
2009-11-03 08:35:04,23.2,-0.9,24.1,32.4,2.7,112
2009-11-03 08:40:04,23.7,1.1,22.6,32.4,2.8,111
2009-11-03 08:45:04,23.9,2.7,21.2,32.4,2.7,112
2009-11-03 08:50:04,22.9,4.1,18.8,32.4,2.7,111
2009-11-03 08:55:04,20.4,5.1,15.3,32.4,2.6,112
2009-11-03 09:00:04,19.3,4.2,15.1,32.4,2.7,112
2009-11-03 09:05:04,19.1,2.8,16.4,32.4,2.7,112
2009-11-03 09:10:04,19.8,1.7,18.0,32.4,2.7,111
2009-11-03 09:15:04,19.7,3.2,16.5,32.4,2.7,111
2009-11-03 09:20:04,19.5,5.9,13.6,32.5,2.7,112
2009-11-03 09:25:04,19.5,4.3,15.2,32.5,2.7,111
2009-11-03 09:30:04,20.5,-0.2,20.7,32.5,2.6,112
2009-11-03 09:35:04,22.8,-8.5,31.3,32.5,2.7,111
2009-11-03 09:40:04,24.0,-6.5,30.5,32.5,2.7,112
2009-11-03 09:45:04,24.3,-9.9,34.1,32.5,2.7,111
2009-11-03 09:50:04,24.4,-6.2,30.6,32.5,2.7,112
2009-11-03 09:55:04,24.7,-1.2,25.8,32.5,2.7,111
2009-11-03 10:00:04,24.6,4.3,20.3,32.5,2.7,111
2009-11-03 10:05:04,21.9,6.5,15.4,32.4,2.7,112
2009-11-03 10:10:04,20.7,4.7,16.0,32.5,2.8,111
2009-11-03 10:15:04,21.9,2.5,19.5,32.5,2.8,112
2009-11-03 10:20:04,20.9,5.8,15.1,32.5,2.8,111
2009-11-03 10:25:04,21.0,6.4,14.6,32.5,2.8,112
2009-11-03 10:30:04,20.8,6.0,14.7,32.5,2.8,112
2009-11-03 10:35:04,20.5,6.0,14.5,32.5,2.7,111
2009-11-03 10:40:04,20.4,5.6,14.8,32.5,2.7,112
2009-11-03 10:45:04,20.4,5.9,14.5,32.4,2.7,111
2009-11-03 10:50:04,20.3,6.6,13.7,32.4,2.9,112
2009-11-03 10:55:04,20.0,6.0,14.0,32.3,6.2,111
2009-11-03 11:00:04,19.7,6.9,12.8,32.4,2.8,112
2009-11-03 11:05:04,19.6,3.8,15.8,32.5,2.8,111
2009-11-03 11:10:04,19.7,5.3,14.4,32.4,4.4,112
2009-11-03 11:15:04,19.6,5.2,14.4,32.5,11.4,112
2009-11-03 11:20:04,19.6,5.1,14.4,32.4,8.3,111
2009-11-03 11:25:04,19.5,5.2,14.4,32.4,10.1,112
2009-11-03 11:30:04,19.5,5.4,14.1,32.4,12.1,111
2009-11-03 11:35:04,19.6,8.2,11.4,32.4,16.8,112
2009-11-03 11:40:04,19.6,10.2,9.4,32.2,26.0,111
2009-11-03 11:45:04,19.5,9.7,9.8,32.2,26.7,111
2009-11-03 11:50:04,19.5,10.1,9.4,32.4,26.4,112
2009-11-03 11:55:04,19.3,8.6,10.7,32.4,25.8,111
2009-11-03 12:00:04,19.2,8.2,11.1,32.3,23.4,111
2009-11-03 12:05:04,19.2,9.0,10.2,32.3,23.3,112
2009-11-03 12:10:04,19.3,8.5,10.8,32.3,8.7,111
2009-11-03 12:15:04,19.4,6.1,13.3,32.4,14.0,112
2009-11-03 12:20:04,19.4,5.4,14.0,32.3,4.1,111
2009-11-03 12:25:04,19.4,5.2,14.3,32.3,3.2,112
2009-11-03 12:30:04,19.4,5.6,13.9,32.2,4.7,112
2009-11-03 12:35:04,19.4,6.0,13.3,32.4,2.8,111
2009-11-03 12:40:04,20.3,0.2,20.1,32.5,2.7,112
2009-11-03 12:45:04,23.2,2.4,20.8,32.5,2.7,111
2009-11-03 12:50:04,23.9,2.6,21.3,32.5,2.7,111
2009-11-03 12:55:04,24.0,1.5,22.5,32.5,2.6,112
2009-11-03 13:00:04,24.0,-0.0,24.0,32.5,2.7,111
2009-11-03 13:05:04,24.0,0.5,23.5,32.4,2.6,112
2009-11-03 13:10:04,23.9,0.2,23.8,32.4,4.3,111
2009-11-03 13:15:04,23.8,-7.3,31.1,32.5,3.2,112
2009-11-03 13:20:04,23.9,-6.4,30.3,32.5,2.7,111
2009-11-03 13:25:04,24.0,-1.3,25.3,32.5,2.7,112
2009-11-03 13:30:04,24.0,0.1,23.9,32.4,2.7,112
2009-11-03 13:35:04,23.9,1.0,23.0,32.5,2.8,111
2009-11-03 13:40:04,24.0,0.2,23.8,32.5,2.7,112
2009-11-03 13:45:04,24.0,-0.9,24.9,32.5,2.7,112
2009-11-03 13:50:04,24.1,-0.4,24.5,32.5,2.7,112
2009-11-03 13:55:04,24.1,-1.1,25.2,32.4,3.2,111
2009-11-03 14:00:04,24.0,-0.8,24.8,32.4,2.8,112
2009-11-03 14:05:04,24.1,-6.0,30.0,32.5,2.7,112
2009-11-03 14:10:04,24.4,-8.3,32.7,32.6,2.7,111
2009-11-03 14:15:04,25.3,-14.8,40.0,32.6,2.7,112
2009-11-03 14:20:04,25.1,-10.1,35.3,32.5,2.7,111
2009-11-03 14:25:04,24.6,-4.9,29.5,32.5,2.7,112
2009-11-03 14:30:04,24.4,-14.9,39.3,32.5,2.7,112
2009-11-03 14:35:04,24.3,-12.5,36.9,32.6,2.7,111
2009-11-03 14:40:04,25.2,-17.2,42.4,32.6,2.7,112
2009-11-03 14:45:04,25.3,-19.3,44.6,32.5,2.7,111
2009-11-03 14:50:04,24.6,-16.3,41.0,32.5,2.7,112
2009-11-03 14:55:04,24.2,-18.3,42.4,32.4,2.7,111
2009-11-03 15:00:04,23.9,-19.3,43.2,32.5,2.7,112
2009-11-03 15:05:04,23.9,-18.6,42.6,32.6,2.7,112
2009-11-03 15:10:04,24.4,-17.9,42.3,32.6,2.7,111
2009-11-03 15:15:04,24.8,-20.2,45.0,32.5,2.6,112
2009-11-03 15:20:04,24.5,-20.0,44.5,32.5,2.6,112
2009-11-03 15:25:04,24.1,-19.0,43.1,32.5,2.7,111
2009-11-03 15:30:04,24.1,-17.5,41.6,32.6,2.7,112
2009-11-03 15:35:04,24.3,-18.8,43.2,32.6,2.7,112
2009-11-03 15:40:04,24.4,-19.6,44.0,32.6,2.7,111
2009-11-03 15:45:04,24.4,-19.5,43.8,32.6,2.7,112
2009-11-03 15:50:04,24.3,-20.0,44.3,32.5,2.7,112
2009-11-03 15:55:04,24.1,-20.6,44.8,32.5,2.7,111
2009-11-03 16:00:04,24.0,-20.5,44.5,32.5,2.7,112
2009-11-03 16:05:04,23.9,-21.2,45.1,32.5,2.6,111
2009-11-03 16:10:04,23.7,-21.6,45.3,32.5,2.5,112
2009-11-03 16:15:04,23.5,-22.0,45.5,32.4,2.7,111
2009-11-03 16:20:04,23.2,-22.4,45.5,32.3,2.7,112
2009-11-03 16:25:04,22.8,-22.4,45.2,32.1,2.7,112
2009-11-03 16:30:04,22.5,-22.6,45.1,32.0,2.7,111
2009-11-03 16:35:04,22.3,-22.3,44.6,31.7,2.4,112
2009-11-03 16:40:04,22.2,-21.5,43.7,31.4,2.3,112
2009-11-03 16:45:04,22.1,-20.4,42.5,30.8,2.3,111
2009-11-03 16:50:04,22.0,-14.6,36.6,29.9,2.3,112
2009-11-03 16:55:04,22.0,-16.0,37.9,28.0,2.3,111
2009-11-03 17:00:04,22.0,-13.7,35.7,23.7,2.3,112
2009-11-03 17:05:04,22.0,-3.4,25.4,19.2,2.3,111
2009-11-03 17:10:04,22.1,-12.6,34.7,15.4,2.3,112
2009-11-03 17:15:04,22.0,-22.1,44.0,9.7,2.4,111
2009-11-03 17:20:04,21.7,-22.7,44.4,5.6,2.6,112
2009-11-03 17:25:04,21.5,-22.8,44.3,3.0,2.5,111
2009-11-03 17:30:04,21.3,-23.2,44.5,1.5,2.4,112
2009-11-03 17:35:04,21.2,-23.2,44.4,0.8,2.4,111
2009-11-03 17:40:04,21.1,-23.2,44.3,0.4,2.5,112
2009-11-03 17:45:04,21.0,-23.0,44.1,0.2,2.5,111
2009-11-03 17:50:04,21.0,-22.4,43.4,0.1,2.6,112
2009-11-03 17:55:04,20.9,-22.2,43.1,0.1,2.6,111
2009-11-03 18:00:04,21.0,-22.1,43.1,0.1,2.6,112
2009-11-03 18:05:04,20.9,-22.2,43.1,0.0,2.7,112
2009-11-03 18:10:04,20.9,-20.8,41.7,0.0,2.7,111
2009-11-03 18:15:04,20.9,-21.3,42.3,0.0,2.7,112
2009-11-03 18:20:04,20.5,-21.2,41.7,0.0,2.7,111
2009-11-03 18:25:04,20.8,-21.6,42.4,0.0,2.7,112
2009-11-03 18:30:04,20.7,-22.0,42.8,0.0,2.7,112
2009-11-03 18:35:04,20.7,-22.2,42.9,0.0,2.7,111
2009-11-03 18:40:04,20.7,-22.8,43.4,0.0,2.7,111
2009-11-03 18:45:04,20.6,-23.1,43.6,0.0,2.7,112
2009-11-03 18:50:04,20.5,-23.1,43.6,0.1,2.7,112
2009-11-03 18:55:04,20.4,-23.0,43.4,0.1,2.7,111
2009-11-03 19:00:04,20.0,-22.8,42.7,0.1,2.6,112
2009-11-03 19:05:04,20.2,-22.9,43.1,0.1,2.5,111
2009-11-03 19:10:04,20.2,-23.0,43.2,0.1,2.5,112
2009-11-03 19:15:04,20.1,-22.9,43.0,0.1,2.4,111
2009-11-03 19:20:04,20.1,-22.8,42.9,0.1,2.3,112
2009-11-03 19:25:04,20.1,-22.7,42.8,0.1,2.3,111
2009-11-03 19:30:04,20.1,-22.9,43.0,0.1,2.3,112
2009-11-03 19:35:04,20.2,-22.6,42.7,0.1,2.3,112
2009-11-03 19:40:04,20.2,-22.2,42.4,0.1,2.3,111
2009-11-03 19:45:04,20.2,-21.6,41.8,0.1,2.3,112
2009-11-03 19:50:04,20.2,-20.2,40.5,0.1,2.3,112
2009-11-03 19:55:04,20.3,-18.1,38.4,0.1,2.3,111
2009-11-03 20:00:04,20.0,-13.6,33.6,0.2,2.4,112
2009-11-03 20:05:04,20.3,-10.7,31.0,0.3,2.5,111
2009-11-03 20:10:04,20.4,-9.6,30.0,0.3,2.7,112
2009-11-03 20:15:04,20.6,-9.6,30.2,0.3,2.7,112
2009-11-03 20:20:04,20.7,-9.6,30.3,0.3,2.7,112
2009-11-03 20:25:04,20.7,-9.9,30.6,0.3,2.7,112
2009-11-03 20:30:04,20.7,-11.3,32.1,0.3,2.7,111
2009-11-03 20:35:04,20.6,-12.2,32.9,0.3,2.7,111
2009-11-03 20:40:04,20.6,-11.7,32.2,0.3,2.7,112
2009-11-03 20:45:04,20.6,-11.9,32.6,0.3,2.7,111
2009-11-03 20:50:04,20.6,-11.9,32.5,0.4,2.7,111
2009-11-03 20:55:04,20.6,-11.8,32.4,0.4,2.7,111
2009-11-03 21:00:04,20.6,-10.5,31.1,0.4,2.7,112
2009-11-03 21:05:04,20.6,-9.6,30.2,0.4,2.6,112
2009-11-03 21:10:04,20.7,-9.1,29.8,0.4,2.5,111
2009-11-03 21:15:04,20.6,-8.0,28.7,0.4,2.4,112
2009-11-03 21:20:04,20.6,-4.7,25.2,0.4,2.4,112
2009-11-03 21:25:04,20.6,-2.8,23.4,0.4,2.6,111
2009-11-03 21:30:04,20.7,-3.4,24.1,0.4,2.7,113
2009-11-03 21:35:04,20.7,-1.5,22.2,0.3,2.7,112
2009-11-03 21:40:04,20.8,-6.3,27.1,0.4,2.7,111
2009-11-03 21:45:04,20.8,-7.1,27.9,0.4,2.7,112
2009-11-03 21:50:04,20.7,-7.2,27.9,0.4,2.5,111
2009-11-03 21:55:04,20.6,-6.7,27.3,0.4,2.3,112
2009-11-03 22:00:04,20.6,-4.9,25.5,0.4,2.3,112
2009-11-03 22:05:04,20.6,-3.9,24.5,0.4,2.9,112
2009-11-03 22:10:04,20.4,-4.1,24.5,0.4,4.0,112
2009-11-03 22:15:04,20.2,-5.4,25.6,0.4,3.8,112
2009-11-03 22:20:04,20.0,-8.4,28.4,0.6,2.7,112
2009-11-03 22:25:04,19.9,-7.9,27.8,0.6,2.7,111
2009-11-03 22:30:04,20.0,-7.3,27.3,0.5,2.7,111
2009-11-03 22:35:04,20.0,-4.4,24.4,0.5,2.7,112
2009-11-03 22:40:04,20.1,-4.7,24.8,0.5,2.9,112
2009-11-03 22:45:04,20.1,-5.5,25.6,0.6,2.7,111
2009-11-03 22:50:04,20.1,-4.7,24.8,0.5,2.7,112
2009-11-03 22:55:04,20.1,-5.5,25.6,0.5,3.2,112
2009-11-03 23:00:04,20.0,-5.6,25.7,0.5,3.5,111
2009-11-03 23:05:04,19.8,-5.7,25.5,0.6,3.5,112
2009-11-03 23:10:04,19.7,-5.3,25.0,0.6,3.0,111
2009-11-03 23:15:04,19.8,-3.6,23.4,0.6,3.3,112
2009-11-03 23:20:04,19.8,-2.8,22.6,0.3,3.1,112
2009-11-03 23:25:04,19.8,-2.3,22.1,0.3,6.7,111
2009-11-03 23:30:04,19.7,-2.7,22.4,0.4,10.7,112
2009-11-03 23:35:04,19.5,-3.8,23.3,0.6,10.2,112
2009-11-03 23:40:04,19.4,-4.6,24.0,0.5,2.9,112
2009-11-03 23:45:04,19.4,-8.2,27.6,0.4,2.6,111
2009-11-03 23:50:04,19.4,-19.3,38.7,0.8,2.6,112
2009-11-03 23:55:04,19.3,-23.4,42.6,0.9,2.6,111
